Whiting Fld NAS, FL

12:39 AM CST on January 24, 2018 (GMT -0600)
Whiting Field Naval Air Station (North)

Weather History for KNSE - April, 2013

Change the Weather History Date:

Tuesday, April 16, 2013

  Actual Average Record
Temperature  
Mean Temperature 74 °F -  
Max Temperature 87 °F 75 °F 87 °F (2013)
Min Temperature 63 °F 54 °F 37 °F (2008)
Cooling Degree Days 10    
Growing Degree Days 24 (Base 50)    
Moisture  
Dew Point 63 °F    
Average Humidity 71    
Maximum Humidity 90    
Minimum Humidity 46    
Precipitation  
Precipitation 0.00 in - - ()
Sea Level Pressure  
Sea Level Pressure 30.06 in    
Wind  
Wind Speed 6 mph (SE)    
Max Wind Speed 13 mph    
Max Gust Speed 20 mph    
Visibility 9 miles    
Events      
Averages and records for this station are not official NWS values.
T = Trace of Precipitation, MM = Missing Value Source: NWS Daily Summary

Daily Weather History Graph

Daily Weather History Graph

Search for Another Location

Airport or City:

Trip Planner

Search our weather history database for the weather conditions in past years. The results will help you decide how hot, cold, wet, or windy it might be!

Date:

Astronomy

Apr. 16, 2013 Rise Set
Actual Time 6:19 AM CDT 7:16 PM CDT
Civil Twilight 5:54 AM CDT 7:41 PM CDT
Nautical Twilight 5:25 AM CDT 8:11 PM CDT
Astronomical Twilight 4:54 AM CDT 8:41 PM CDT
Moon 10:47 AM CDT (4/16) 12:03 AM CDT (4/16)
Length of Visible Light 13h 47m
Length of Day
12h 57m
Waxing Crescent, 33% of the Moon is Illuminated
Apr 16
Waxing Crescent
Apr 18
First Quarter
Apr 25
Full
May 2
Last Quarter
May 9
New

Hourly Weather History & Observations

Time (CDT) Temp. Heat Index Dew Point Humidity Pressure Visibility Wind Dir Wind Speed Gust Speed Precip Events Conditions
12:56 AM 66.0 °F - 62.1 °F 87% 30.03 in 10.0 mi East 3.5 mph - N/A   Mostly Cloudy
1:56 AM 66.0 °F - 62.1 °F 87% 30.02 in 10.0 mi East 3.5 mph - N/A   Mostly Cloudy
2:56 AM 64.9 °F - 61.0 °F 87% 30.01 in 9.0 mi East 3.5 mph - N/A   Clear
3:56 AM 64.9 °F - 61.0 °F 87% 30.01 in 9.0 mi Calm Calm - N/A   Partly Cloudy
4:56 AM 64.9 °F - 61.0 °F 87% 30.01 in 9.0 mi East 4.6 mph - N/A   Clear
5:56 AM 63.0 °F - 60.1 °F 90% 30.03 in 8.0 mi East 3.5 mph - N/A   Clear
6:56 AM 64.9 °F - 61.0 °F 87% 30.04 in 9.0 mi ESE 8.1 mph - N/A   Partly Cloudy
7:56 AM 69.1 °F - 63.0 °F 81% 30.06 in 10.0 mi ESE 5.8 mph - N/A   Scattered Clouds
8:56 AM 73.9 °F - 63.0 °F 68% 30.07 in 10.0 mi SE 6.9 mph - N/A   Clear
9:56 AM 80.1 °F 81.7 °F 64.0 °F 58% 30.08 in 10.0 mi SE 9.2 mph - N/A   Clear
10:56 AM 82.9 °F 84.6 °F 64.9 °F 54% 30.09 in 10.0 mi SE 10.4 mph - N/A   Scattered Clouds
11:56 AM 84.9 °F 86.6 °F 64.9 °F 51% 30.09 in 10.0 mi SSE 11.5 mph 19.6 mph N/A   Scattered Clouds
12:56 PM 84.9 °F 86.6 °F 64.9 °F 51% 30.09 in 10.0 mi SSE 10.4 mph 17.3 mph N/A   Scattered Clouds
1:56 PM 86.0 °F 87.3 °F 64.0 °F 48% 30.08 in 10.0 mi SSE 10.4 mph 18.4 mph N/A   Scattered Clouds
2:56 PM 84.9 °F 85.9 °F 63.0 °F 48% 30.07 in 5.0 mi SE 12.7 mph - N/A   Haze
3:56 PM 86.0 °F 86.8 °F 63.0 °F 46% 30.06 in 7.0 mi SSE 11.5 mph - N/A   Scattered Clouds
4:56 PM 84.0 °F 84.9 °F 63.0 °F 49% 30.06 in 10.0 mi SSW 9.2 mph - N/A   Scattered Clouds
5:56 PM 81.0 °F 82.7 °F 64.9 °F 58% 30.07 in 10.0 mi South 10.4 mph - N/A   Scattered Clouds
6:56 PM 77.0 °F - 64.9 °F 66% 30.07 in 10.0 mi South 9.2 mph - N/A   Scattered Clouds
7:56 PM 73.0 °F - 64.9 °F 76% 30.08 in 10.0 mi South 6.9 mph - N/A   Scattered Clouds
8:56 PM 70.0 °F - 64.0 °F 81% 30.09 in 10.0 mi SE 4.6 mph - N/A   Scattered Clouds
9:56 PM 66.9 °F - 63.0 °F 87% 30.10 in 8.0 mi Calm Calm - N/A   Scattered Clouds
10:56 PM 66.0 °F - 62.1 °F 87% 30.09 in 7.0 mi Calm Calm - N/A   Partly Cloudy
11:56 PM 66.9 °F - 62.1 °F 84% 30.09 in 7.0 mi Calm Calm - N/A   Mostly Cloudy